Houston Intercontinental, TX

11:37 AM CDT on October 20, 2017 (GMT -0500)
George Bush Intercontinental-Houston Airport

Weather History for KIAH - March, 2014

Change the Weather History Date:

Thursday, March 27, 2014

  Actual Average Record
Temperature  
Mean Temperature 64 °F -  
Max Temperature 71 °F 72 °F 87 °F (2017)
Min Temperature 57 °F 53 °F 37 °F (2013)
Degree Days  
Heating Degree Days 1    
Growing Degree Days 14 (Base 50)    
Moisture  
Dew Point 64 °F    
Average Humidity 89    
Maximum Humidity 100    
Minimum Humidity 79    
Precipitation  
Precipitation 0.02 in - - ()
Sea Level Pressure  
Sea Level Pressure 29.89 in    
Wind  
Wind Speed 13 mph (SSE)    
Max Wind Speed 17 mph    
Max Gust Speed 25 mph    
Visibility 5 miles    
Events Rain    
Averages and records for this station are not official NWS values.
T = Trace of Precipitation, MM = Missing Value Source: NWS Daily Summary

Daily Weather History Graph

Daily Weather History Graph

Search for Another Location

Airport or City:

Trip Planner

Search our weather history database for the weather conditions in past years. The results will help you decide how hot, cold, wet, or windy it might be!

Date:

Astronomy

Mar. 27, 2014 Rise Set
Actual Time 7:16 AM CDT 7:37 PM CDT
Civil Twilight 6:52 AM CDT 8:01 PM CDT
Nautical Twilight 6:24 AM CDT 8:29 PM CDT
Astronomical Twilight 5:56 AM CDT 8:57 PM CDT
Moon 4:54 AM CDT (3/27) 4:38 PM CDT (3/27)
Length of Visible Light 13h 08m
Length of Day
12h 20m
Waning Crescent, 13% of the Moon is Illuminated
Mar 27
Waning Crescent
Mar 30
New
Apr 7
First Quarter
Apr 15
Full
Apr 22
Last Quarter

Hourly Weather History & Observations

Time (CDT) Temp. Dew Point Humidity Pressure Visibility Wind Dir Wind Speed Gust Speed Precip Events Conditions
12:53 AM 62.1 °F 57.9 °F 86% 30.01 in 10.0 mi SE 13.8 mph - N/A   Overcast
1:53 AM 63.0 °F 57.9 °F 84% 29.99 in 10.0 mi SE 13.8 mph - N/A   Overcast
2:53 AM 63.0 °F 59.0 °F 87% 29.97 in 10.0 mi SE 13.8 mph - N/A   Overcast
3:20 AM 62.6 °F 57.2 °F 82% 29.96 in 10.0 mi SE 12.7 mph - N/A   Overcast
3:53 AM 64.0 °F 57.9 °F 80% 29.94 in 10.0 mi SSE 13.8 mph - N/A   Overcast
4:53 AM 64.0 °F 59.0 °F 84% 29.91 in 10.0 mi SE 17.3 mph - N/A   Overcast
5:53 AM 64.9 °F 60.1 °F 84% 29.91 in 10.0 mi SSE 12.7 mph - N/A   Overcast
6:53 AM 64.9 °F 60.1 °F 84% 29.91 in 10.0 mi SSE 13.8 mph - N/A   Overcast
7:53 AM 66.0 °F 61.0 °F 84% 29.92 in 10.0 mi South 12.7 mph 20.7 mph N/A   Overcast
8:49 AM 66.2 °F 62.6 °F 88% 29.92 in 10.0 mi SSE 12.7 mph - N/A   Overcast
8:53 AM 66.0 °F 62.1 °F 87% 29.92 in 10.0 mi South 13.8 mph - N/A   Overcast
9:53 AM 68.0 °F 63.0 °F 84% 29.91 in 10.0 mi South 16.1 mph 24.2 mph N/A   Overcast
10:53 AM 69.1 °F 64.0 °F 84% 29.92 in 10.0 mi SSE 16.1 mph 25.3 mph N/A   Overcast
11:53 AM 69.1 °F 64.9 °F 87% 29.92 in 10.0 mi South 15.0 mph 23.0 mph 0.00 in Rain Light Rain
12:01 PM 69.8 °F 66.2 °F 88% 29.92 in 4.0 mi South 13.8 mph 24.2 mph 0.00 in Rain Light Rain
12:20 PM 69.8 °F 66.2 °F 88% 29.91 in 3.0 mi South 12.7 mph - 0.00 in   Overcast
12:36 PM 69.8 °F 66.2 °F 88% 29.91 in 2.0 mi SSE 11.5 mph 23.0 mph 0.00 in Rain Light Rain
12:53 PM 69.1 °F 66.9 °F 93% 29.90 in 2.0 mi SSE 13.8 mph - 0.00 in Rain Light Rain
1:53 PM 71.1 °F 66.0 °F 84% 29.88 in 2.0 mi South 11.5 mph - 0.00 in   Haze
2:53 PM 71.1 °F 66.9 °F 87% 29.85 in 2.0 mi SSE 11.5 mph - 0.00 in   Overcast
3:11 PM 69.8 °F 66.2 °F 88% 29.84 in 3.0 mi SSE 10.4 mph - 0.00 in Rain Light Rain
3:53 PM 70.0 °F 66.9 °F 90% 29.83 in 3.0 mi SSE 6.9 mph - 0.00 in   Overcast
4:46 PM 71.6 °F 66.2 °F 83% 29.82 in 1.5 mi South 9.2 mph 18.4 mph N/A   Overcast
4:53 PM 70.0 °F 68.0 °F 93% 29.82 in 1.5 mi South 9.2 mph - N/A   Overcast
5:07 PM 69.8 °F 68.0 °F 94% 29.82 in 1.5 mi South 8.1 mph - 0.00 in Rain Light Rain
5:53 PM 70.0 °F 68.0 °F 93% 29.82 in 1.5 mi South 9.2 mph - 0.02 in Rain Light Rain
6:53 PM 69.1 °F 68.0 °F 96% 29.80 in 1.5 mi South 11.5 mph - 0.00 in   Overcast
7:53 PM 70.0 °F 68.0 °F 93% 29.80 in 1.5 mi South 10.4 mph - N/A   Overcast
8:53 PM 70.0 °F 68.0 °F 93% 29.82 in 1.5 mi South 5.8 mph - N/A   Overcast
9:40 PM 69.8 °F 69.8 °F 100% 29.82 in 0.5 mi South 6.9 mph - N/A   Overcast
9:53 PM 70.0 °F 69.1 °F 97% 29.83 in 0.5 mi South 6.9 mph - N/A   Overcast
10:53 PM 70.0 °F 69.1 °F 97% 29.84 in 1.2 mi South 4.6 mph - N/A   Overcast
11:53 PM 70.0 °F 69.1 °F 97% 29.85 in 0.8 mi Calm Calm - 0.00 in   Overcast